Showing default

SKYSAT C10, 42988

Orbit data source: Space-Track

SKYSAT C10, 42988 is a payload satellite owned by Terra Bella (US) in SSO that was launched on Tue, 31 Oct 2017 UTC via a MINOTAUR-C 3210 launch vehicle from the Air Force Western Test Range (AFWTR). Payload-class satellites include a variety of spacecraft equipped with specific instruments for various scientific and technological missions. These include communications satellites like Starlink; space stations such as the ISS; scientific satellites like the Hubble; Earth observation satellites from companies like Planet Labs, Umbra, and HawkEye 360; GPS; miniature CubeSats for education and research; and military/defense satellites.

Loading next visibility...
Identifier
42988, 2017-068B
Orbit
SSO
Country
Flag of USUS
Related business
Manufacturer
Maxar SSL
Mission
Operational Commercial Imaging
Bus & Motor
SKYSAT-GEN2, Unknown motor
Mass
110 kg wet, 110 kg dry
Launch date (UTC)
2017-10-31 (9 years ago)
Launch vehicle
MINOTAUR-C 3210
Launch site
Air Force Western Test Range (AFWTR)
Object type
Payload
Rocket body
Debris
Shape & HBR
Box, 1.0 m
Radar Cross Section
0.888 m², Medium (>0.1 m² and < 1m²)

Expand to show TLE details & history
Last TLE update: 10 hours ago

TLE from 10 hours ago
0 SKYSAT C10
1 42988U 17068B   26124.85533003  .00010447  00000-0  32100-3 0  9990
2 42988  97.4449 261.3221 0001695 103.1979 256.9452 15.33894728475715
Epoch: 2026-05-04T20:31Z
TLE epoch observation values (Epoch: 2026-05-04T20:31:40.514Z)
Latitude
-0.0001°
Longitude
90.66477°
Altitude
467.576 km
Speed
7.632 km/s
True Right ascension
17h 25m 17s
True Declination
0° 00' 00"
Sunlit
Object was in full shadow at epoch
Visualization orbit readout
Latitude
Unknown
Longitude
Unknown
Altitude
Unknown
Speed
Unknown
Apparent Right ascension
Unknown
Apparent Declination
Unknown
Sunlit
N/A
Visualization observer readout
Local Sidereal Time
14:08:57
Azimuth
Unknown
Elevation
Unknown
Doppler factor
Unknown
Orbital elements
Apogee altitude
462.314 km
Perigee altitude
459.995 km
Semi-major axis
6,839.291 km
Eccentricity
0.00017
Inclination
97.4449°
RAAN
261.3221°
Arg. of periapsis
103.1979°
True anomaly
256.92628°
Mean anomaly
256.9452°
Eccentric anomaly
256.93574°
Mean motion
3.83731 °/min
Orbital period
93.82 mins
BSTAR
0.000321
Loading maneuver chart data...
Computing Atmospheric mass density...
Loading historical data...
Loading historical data...
Loading historical data...
Loading historical data...
Loading historical data...
Loading historical data...
Loading historical data...

Documentation

Showing up to 5 results
|